Weather in Fanipol

Belarus     53°44′43″N   27°20′00″E
temp.,
°C
wind,
m/s
gust,
m/s
humid.,
%
clouds,
%
prec.,
mm/h
press.,
hPa
HPBL,
m
13 may, thu
thu1300:00+9ene1180100 0.0 101211
03:00+11n2274100 0.1 101048
06:00+9nw3997100 8.1 1005472
09:00+10ene4695100 15.7 1004474
12:00+8sse101497100 5.1 10061046
15:00+8sse5995100 11.8 10071002
18:00+8ese61096100 1.8 1007583
21:00+9ese61197100 2.8 1006477
14 may, fri
fri1400:00+9se5119787 0.4 1006492
03:00+9se51099100 0.5 1005451
06:00+9se61298100 6.8 1004606
09:00+10sse61195100 7.8 1005585
12:00+11se61196100 0.7 1006651
15:00+14sse51089100 1.1 10051010
18:00+16sse588299 1.8 1004847
21:00+13sse238998 3.6 100534
15 may, sat
sat1500:00+11s22925 0.0 100511
03:00+10ssw11915 0.0 100510
06:00+9sw11935 0.0 100611
09:00+14sw238413 0.0 1006326
12:00+16wsw347830 1.1 1007639
15:00+19w556591 1.4 10061357
18:00+17wnw457796 1.0 1007727
21:00+13wsw4792100 2.2 1008142
16 may, sun
sun1600:00+11wsw379581 0.0 1009150
03:00+11w379699 0.0 1010159
06:00+11wsw249599 0.0 101197
09:00+14ssw33825 0.0 1012469
12:00+17s3467100 0.0 10121032
15:00+19s335799 0.0 10121442
18:00+18sse3465100 0.0 10111163
21:00+14ese468087 0.0 101094
17 may, mon
mon1700:00+12se41284100 0.1 1010267
03:00+11se31192100 0.4 1010229
06:00+11se3798100 0.3 1009173
09:00+14s4692100 0.4 1010437
12:00+15sse5792100 1.7 1010554
15:00+14wnw2395100 6.2 1010247
18:00+14ene2496100 1.1 1009231
21:00+13ene2297100 1.9 100750